TimeCST,TemperatureF,Dew PointF,Humidity,Sea Level PressureIn,VisibilityMPH,Wind Direction,Wind SpeedMPH,Gust SpeedMPH,PrecipitationIn,Events,Conditions,WindDirDegrees,DateUTC
12:15 AM,29.7,26.6,88,29.80,5.0,Calm,Calm,-,N/A,,Clear,0,2012-12-17 06:15:00
12:35 AM,28.2,25.2,88,29.80,5.0,West,4.6,-,N/A,,Clear,260,2012-12-17 06:35:00
12:55 AM,28.4,25.3,88,29.78,5.0,SW,3.5,-,N/A,,Clear,230,2012-12-17 06:55:00
1:15 AM,27.5,24.6,89,29.78,5.0,West,4.6,-,N/A,,Clear,260,2012-12-17 07:15:00
1:35 AM,27.5,24.6,89,29.76,5.0,SSW,3.5,-,N/A,,Clear,210,2012-12-17 07:35:00
1:55 AM,27.9,24.8,88,29.76,5.0,Calm,Calm,-,N/A,,Clear,0,2012-12-17 07:55:00
2:15 AM,27.9,24.8,88,29.76,7.0,Calm,Calm,-,N/A,,Clear,0,2012-12-17 08:15:00
2:35 AM,28.0,25.0,88,29.76,7.0,SW,3.5,-,N/A,,Clear,230,2012-12-17 08:35:00
2:55 AM,28.4,25.3,88,29.75,7.0,SSE,3.5,-,N/A,,Clear,150,2012-12-17 08:55:00
3:15 AM,28.8,25.7,88,29.75,7.0,SSW,5.8,-,N/A,,Clear,200,2012-12-17 09:15:00
3:35 AM,27.5,24.3,88,29.75,7.0,SSW,3.5,-,N/A,,Clear,200,2012-12-17 09:35:00
3:55 AM,27.5,24.6,89,29.75,5.0,SW,3.5,-,N/A,,Clear,220,2012-12-17 09:55:00
4:15 AM,26.6,23.7,89,29.75,7.0,WSW,4.6,-,N/A,,Clear,240,2012-12-17 10:15:00
4:35 AM,27.3,24.4,89,29.74,5.0,SSW,4.6,-,N/A,,Clear,210,2012-12-17 10:35:00
4:55 AM,27.3,24.4,89,29.74,7.0,SSW,4.6,-,N/A,,Clear,200,2012-12-17 10:55:00
5:15 AM,27.5,24.6,89,29.73,7.0,SSW,4.6,-,N/A,,Clear,200,2012-12-17 11:15:00
5:35 AM,27.9,25.0,89,29.73,7.0,South,4.6,-,N/A,,Clear,170,2012-12-17 11:35:00
5:55 AM,27.5,24.3,88,29.73,7.0,SSW,4.6,-,N/A,,Clear,200,2012-12-17 11:55:00
6:15 AM,27.5,24.4,88,29.73,7.0,SSW,4.6,-,N/A,,Scattered Clouds,210,2012-12-17 12:15:00
6:35 AM,27.9,24.8,88,29.73,7.0,SSW,5.8,-,N/A,,Scattered Clouds,200,2012-12-17 12:35:00
6:55 AM,28.0,25.2,89,29.73,7.0,SSW,8.1,-,N/A,,Clear,210,2012-12-17 12:55:00
7:15 AM,28.4,25.7,90,29.73,1.2,SW,6.9,-,N/A,,Mostly Cloudy,230,2012-12-17 13:15:00
7:35 AM,28.6,26.1,90,29.72,1.0,WSW,6.9,-,N/A,,Overcast,240,2012-12-17 13:35:00
7:55 AM,28.2,25.7,90,29.72,4.0,SW,5.8,-,N/A,,Scattered Clouds,230,2012-12-17 13:55:00
8:15 AM,28.2,25.7,90,29.72,5.0,WSW,5.8,-,N/A,,Clear,250,2012-12-17 14:15:00
8:35 AM,28.8,25.9,89,29.72,7.0,WSW,4.6,-,N/A,,Clear,240,2012-12-17 14:35:00
8:55 AM,30.6,27.1,87,29.72,10.0,West,5.8,-,N/A,,Clear,260,2012-12-17 14:55:00
9:15 AM,32.0,27.1,82,29.73,10.0,West,9.2,-,N/A,,Clear,280,2012-12-17 15:15:00
9:35 AM,32.0,27.1,82,29.73,10.0,West,8.1,-,N/A,,Clear,270,2012-12-17 15:35:00
9:55 AM,32.9,27.0,79,29.73,10.0,WNW,8.1,-,N/A,,Clear,300,2012-12-17 15:55:00
10:15 AM,33.8,27.3,77,29.73,10.0,WNW,8.1,-,N/A,,Clear,300,2012-12-17 16:15:00
10:35 AM,34.5,27.3,75,29.73,10.0,WNW,9.2,-,N/A,,Clear,290,2012-12-17 16:35:00
10:55 AM,34.9,27.0,73,29.73,10.0,WNW,9.2,-,N/A,,Clear,290,2012-12-17 16:55:00
11:15 AM,36.0,27.1,70,29.73,10.0,NW,6.9,-,N/A,,Clear,310,2012-12-17 17:15:00
11:35 AM,36.7,27.1,68,29.72,10.0,NW,5.8,-,N/A,,Clear,320,2012-12-17 17:35:00
11:55 AM,37.8,27.5,67,29.72,10.0,WNW,8.1,-,N/A,,Clear,290,2012-12-17 17:55:00
12:15 PM,38.5,27.9,66,29.72,10.0,WNW,8.1,-,N/A,,Clear,300,2012-12-17 18:15:00
12:35 PM,39.2,28.2,65,29.71,10.0,WNW,10.4,-,N/A,,Clear,300,2012-12-17 18:35:00
12:55 PM,39.9,27.5,61,29.70,10.0,WNW,9.2,-,N/A,,Clear,290,2012-12-17 18:55:00
1:15 PM,40.3,27.1,59,29.70,10.0,NW,8.1,-,N/A,,Clear,310,2012-12-17 19:15:00
1:35 PM,41.4,28.0,59,29.69,10.0,West,6.9,-,N/A,,Clear,280,2012-12-17 19:35:00
1:55 PM,42.3,27.7,56,29.68,10.0,West,6.9,-,N/A,,Clear,280,2012-12-17 19:55:00
2:15 PM,42.8,27.5,55,29.67,10.0,West,6.9,-,N/A,,Clear,270,2012-12-17 20:15:00
2:35 PM,42.6,28.0,56,29.66,10.0,West,5.8,-,N/A,,Clear,270,2012-12-17 20:35:00
2:55 PM,42.4,28.6,58,29.66,10.0,WNW,3.5,-,N/A,,Clear,290,2012-12-17 20:55:00
3:15 PM,43.0,28.2,56,29.66,10.0,Calm,Calm,-,N/A,,Clear,0,2012-12-17 21:15:00
3:35 PM,43.2,28.9,57,29.66,10.0,Calm,Calm,-,N/A,,Clear,0,2012-12-17 21:35:00
3:55 PM,43.9,27.9,53,29.65,10.0,Calm,Calm,-,N/A,,Clear,0,2012-12-17 21:55:00
6:35 PM,36.7,28.2,71,29.64,10.0,East,5.8,-,N/A,,Clear,100,2012-12-18 00:35:00
6:55 PM,35.6,28.0,74,29.64,10.0,East,4.6,-,N/A,,Clear,100,2012-12-18 00:55:00
7:15 PM,34.7,27.9,76,29.63,10.0,ESE,5.8,-,N/A,,Clear,110,2012-12-18 01:15:00
7:35 PM,34.0,27.7,78,29.62,10.0,ESE,5.8,-,N/A,,Clear,110,2012-12-18 01:35:00
7:55 PM,34.5,27.5,76,29.62,10.0,SE,4.6,-,N/A,,Clear,130,2012-12-18 01:55:00
8:15 PM,34.5,27.5,76,29.62,10.0,ESE,5.8,-,N/A,,Clear,110,2012-12-18 02:15:00
8:35 PM,33.8,27.3,77,29.61,10.0,ESE,3.5,-,N/A,,Clear,110,2012-12-18 02:35:00
8:55 PM,33.6,27.1,77,29.61,10.0,East,5.8,-,N/A,,Clear,100,2012-12-18 02:55:00
9:15 PM,34.0,27.0,75,29.60,10.0,ESE,4.6,-,N/A,,Clear,110,2012-12-18 03:15:00
9:35 PM,34.7,26.8,73,29.59,10.0,ESE,5.8,-,N/A,,Clear,120,2012-12-18 03:35:00
9:55 PM,34.9,26.6,72,29.58,10.0,SE,8.1,-,N/A,,Clear,140,2012-12-18 03:55:00
10:15 PM,35.6,26.6,70,29.57,10.0,SE,8.1,-,N/A,,Clear,140,2012-12-18 04:15:00
10:35 PM,36.0,26.6,69,29.56,10.0,SSE,10.4,-,N/A,,Clear,150,2012-12-18 04:35:00
10:55 PM,36.3,26.6,68,29.56,10.0,SSE,9.2,-,N/A,,Clear,160,2012-12-18 04:55:00
11:15 PM,36.3,26.4,67,29.56,10.0,SSE,10.4,-,N/A,,Clear,160,2012-12-18 05:15:00
11:35 PM,36.0,26.4,68,29.54,10.0,SSE,9.2,-,N/A,,Clear,150,2012-12-18 05:35:00
11:55 PM,35.6,26.6,70,29.54,10.0,SSE,8.1,-,N/A,,Clear,150,2012-12-18 05:55:00